SCP
0 0 0 0 0 0 0 1 0 0 0 0 0 0 0 0 0 0 0 0 0 0
0 0 0 0 0 0 0 1 0 0 0 0 0 0 0 0 0 0 0 0 0 0
0 0 0 0 0 0 0 1 0 0 0 0 0 0 0 0 0 0 0 0 0 0
0 0 0 0 0 0 0 1 0 0 0 0 0 0 0 0 0 0 0 0 0 0
0 0 0 0 0 0 1 0 0 0 0 0 0 0 0 0 0 0 0 0 0 0
0 0 0 0 0 0 0 0 0 0 0 0 0 0 0 0 0 0 0 0 0 0
0 0 0 0 -0 0 0 0 0 0 0 0 0 0 0 0 0 0 0 0 0 0
0 0 -0 0 0 0 0 0 0 0 0 0 0 0 0 0 0 0 0 0 0 0
0 -0 0 0 0 0 0 0 0 0 0 0 0 0 0 0 0 0 0 0 0 0
0 0 0 0 0 0 0 0 0 0 0 0 0 0 0 0 0 0 0 0 0 0
0 0 0 0 0 0 0 0 0 0 0 0 0 0 0 0 0 0 0 0 0 0
0 0 0 0 0 0 0 0 0 0 0 0 0 0 0 0 0 0 0 0 0 0
0 0 0 0 0 0 0 0 0 0 0 0 0 0 0 0 0 0 0 0 0 0
0 0 0 0 0 0 0 0 0 0 0 0 0 0 0 0 0 0 0 0 0 0
Wind_Speed_500mb
85 87 86 91 82 73 85 80 88 95 105 98 93 94 83 72 78 93 102 104 110 108
82 79 86 85 87 89 84 78 81 101 114 96 92 84 85 80 89 93 102 100 108 96
81 79 78 87 86 85 86 84 95 108 114 96 94 87 81 85 82 90 94 96 100 98
79 84 74 84 91 97 87 87 85 101 105 100 96 90 87 84 93 98 91 89 87 100
78 87 83 78 93 108 90 81 91 128 101 102 94 95 91 89 96 103 97 93 92 103
81 87 97 85 101 92 86 75 109 95 97 99 99 94 89 89 92 98 89 85 99 106
72 86 91 89 101 104 81 81 79 101 93 92 87 84 79 66 56 59 55 42 84 98
63 75 86 87 103 94 76 81 94 86 73 70 76 86 72 55 51 55 58 58 53 63
44 59 73 92 80 67 86 96 77 83 74 75 67 51 56 60 54 45 44 44 41 44
75 88 83 55 77 88 85 85 86 79 68 73 70 64 58 56 52 56 50 51 53 48
102 96 79 81 84 77 83 82 86 85 74 64 66 61 56 55 50 42 45 48 52 52
99 102 99 96 86 90 90 88 81 70 61 58 46 42 49 47 42 36 29 34 39 42
95 87 89 79 88 91 89 78 79 73 62 52 49 35 32 32 36 41 36 26 15 31
91 88 86 81 74 69 67 67 69 65 58 52 49 40 31 29 25 25 27 29 33 33
Wind_Direction_500mb
246 247 240 233 235 236 232 234 225 224 219 216 223 221 221 223 227 232 227 225 220 214
244 241 235 231 231 236 230 231 222 216 214 217 216 216 220 223 224 224 224 223 217 212
244 234 234 229 227 231 230 222 218 212 213 213 212 217 214 224 223 219 216 215 212 204
243 227 230 228 227 228 227 219 219 215 210 212 212 206 210 217 217 211 209 208 210 206
238 230 218 225 225 221 215 216 206 208 214 206 206 208 208 212 212 205 204 207 204 200
234 227 216 216 221 220 206 210 204 214 220 205 200 208 207 208 208 208 209 214 206 197
228 218 216 221 213 200 202 205 201 207 200 198 199 202 202 195 194 204 202 202 217 204
213 213 211 203 188 189 201 213 199 201 177 152 163 173 160 165 175 187 189 193 203 217
157 167 179 182 174 188 201 172 168 169 159 163 170 181 175 164 163 164 177 179 196 212
119 125 120 136 156 167 163 160 163 160 161 163 174 168 185 174 157 161 169 179 185 193
94 106 113 116 124 133 139 140 142 156 167 173 177 182 183 174 158 175 185 193 196 203
78 92 102 104 106 103 113 117 126 128 129 138 144 157 169 175 170 185 192 199 212 211
72 81 87 90 90 96 101 103 107 106 111 109 118 129 141 148 158 158 168 174 191 226
71 72 76 80 83 87 92 94 94 96 96 95 97 105 117 118 131 141 160 175 189 200
Wind_Speed_850mb
85 87 86 91 82 73 85 80 88 95 105 98 93 94 83 72 78 93 102 104 110 108
82 79 86 85 87 89 84 78 81 101 114 96 92 84 85 80 89 93 102 100 108 96
81 79 78 87 86 85 86 84 95 108 114 96 94 87 81 85 82 90 94 96 100 98
79 84 74 84 91 97 87 87 85 101 105 100 96 90 87 84 93 98 91 89 87 100
78 87 83 78 93 108 90 81 91 128 101 102 94 95 91 89 96 103 97 93 92 103
81 87 97 85 101 92 86 75 109 95 97 99 99 94 89 89 92 98 89 85 99 106
72 86 91 89 101 104 81 81 79 101 93 92 87 84 79 66 56 59 55 42 84 98
63 75 86 87 103 94 76 81 94 86 73 70 76 86 72 55 51 55 58 58 53 63
44 59 73 92 80 67 86 96 77 83 74 75 67 51 56 60 54 45 44 44 41 44
75 88 83 55 77 88 85 85 86 79 68 73 70 64 58 56 52 56 50 51 53 48
102 96 79 81 84 77 83 82 86 85 74 64 66 61 56 55 50 42 45 48 52 52
99 102 99 96 86 90 90 88 81 70 61 58 46 42 49 47 42 36 29 34 39 42
95 87 89 79 88 91 89 78 79 73 62 52 49 35 32 32 36 41 36 26 15 31
91 88 86 81 74 69 67 67 69 65 58 52 49 40 31 29 25 25 27 29 33 33
Wind_Direction_850mb
246 247 240 233 235 236 232 234 225 224 219 216 223 221 221 223 227 232 227 225 220 214
244 241 235 231 231 236 230 231 222 216 214 217 216 216 220 223 224 224 224 223 217 212
244 234 234 229 227 231 230 222 218 212 213 213 212 217 214 224 223 219 216 215 212 204
243 227 230 228 227 228 227 219 219 215 210 212 212 206 210 217 217 211 209 208 210 206
238 230 218 225 225 221 215 216 206 208 214 206 206 208 208 212 212 205 204 207 204 200
234 227 216 216 221 220 206 210 204 214 220 205 200 208 207 208 208 208 209 214 206 197
228 218 216 221 213 200 202 205 201 207 200 198 199 202 202 195 194 204 202 202 217 204
213 213 211 203 188 189 201 213 199 201 177 152 163 173 160 165 175 187 189 193 203 217
157 167 179 182 174 188 201 172 168 169 159 163 170 181 175 164 163 164 177 179 196 212
119 125 120 136 156 167 163 160 163 160 161 163 174 168 185 174 157 161 169 179 185 193
94 106 113 116 124 133 139 140 142 156 167 173 177 182 183 174 158 175 185 193 196 203
78 92 102 104 106 103 113 117 126 128 129 138 144 157 169 175 170 185 192 199 212 211
72 81 87 90 90 96 101 103 107 106 111 109 118 129 141 148 158 158 168 174 191 226
71 72 76 80 83 87 92 94 94 96 96 95 97 105 117 118 131 141 160 175 189 200